Location: Baix
(44.7118°N, 4.7648°E)
Time: 02:34:19
(UTC+00:00)

Vanguard 1 Rocket - Pass Details

Date: 04 October 2022
Orbit: 650 x 4225 km, 34.3° (Epoch: 06 December)

Event Time Altitude Azimuth Distance (km) Brightness Sun altitude
Rises 19:49:37 0° 246° (WSW) 8,181 12.8 -27.6°
Reaches altitude 10° 19:55:58 10° 243° (WSW) 6,810 12.2 -28.6°
Maximum altitude 20:15:04 52° 175° (S) 2,873 9.6 -31.6°
Enters shadow 20:17:16 48° 149° (SSE) 2,756 9.3 -32.0°
